^^
Station Historical Data
 
Daily Summary for November 23, 2017 Units:  English    Metric   Both
« Previous Day
Next Day »
Daily Weekly Monthly Yearly Custom
  Current: High: Low: Average:
Temperature: 36.3 °F 41.3 °F 36.3 °F 39.8 °F
Dew Point: 31.3 °F 36.5 °F 31.3 °F 34 °F
Humidity: 82% 83% 77% 80%
Wind Speed: 0.0mph 0.2mph 0.0mph 0mph
Wind Gust: 0.0mph 2.3mph - -
WindCalm - - NNW
Pressure: 30.23 in 30.25 in 30.23 in -
Precipitation: 0.00 in      
Historical Graphs
 
 
Tabular Data for November 23, 2017
Time Temperature Dew Point Pressure Wind Wind Speed Wind Gust Humidity Rainfall Rate (Hourly) solar Conditions
00:04 41.2 °F 36.4 °F 30.25 in NNW 0.2 mph 1.1 mph 83% 0.00 in WeatherDisplay:10.37 W/m2 RA
00:14 41.3 °F 36.5 °F 30.25 in NNW 0.1 mph 1.1 mph 83% 0.00 in WeatherDisplay:10.37 W/m2 CLR
00:19 41.3 °F 36.2 °F 30.25 in Calm   1.0 mph 82% 0.00 in WeatherDisplay:10.37 W/m2 CLR
00:24 41.3 °F 35.9 °F 30.25 in Calm     81% 0.00 in WeatherDisplay:10.37 W/m2 CLR
00:29 41.2 °F 35.8 °F 30.25 in Calm     81% 0.00 in WeatherDisplay:10.37 W/m2 CLR
00:34 41.2 °F 36.1 °F 30.25 in Calm     82% 0.00 in WeatherDisplay:10.37 W/m2 CLR
00:39 41.1 °F 36.0 °F 30.25 in Calm     82% 0.00 in WeatherDisplay:10.37 W/m2 CLR
00:44 41.0 °F 35.6 °F 30.25 in Calm     81% 0.00 in WeatherDisplay:10.37 W/m2 CLR
00:49 40.9 °F 35.5 °F 30.25 in Calm     81% 0.00 in WeatherDisplay:10.37 W/m2 CLR
00:54 40.8 °F 35.4 °F 30.25 in Calm     81% 0.00 in WeatherDisplay:10.37 W/m2 CLR
00:59 40.6 °F 35.2 °F 30.25 in Calm     81% 0.00 in WeatherDisplay:10.37 W/m2 CLR
01:04 40.6 °F 35.2 °F 30.25 in Calm     81% 0.00 in WeatherDisplay:10.37 W/m2 CLR
01:09 40.4 °F 35.0 °F 30.25 in NNW 0.1 mph 1.1 mph 81% 0.00 in WeatherDisplay:10.37 W/m2 CLR
01:14 40.4 °F 34.7 °F 30.24 in NNW 0.1 mph 1.1 mph 80% 0.00 in WeatherDisplay:10.37 W/m2 CLR
01:19 40.5 °F 35.1 °F 30.25 in Calm     81% 0.00 in WeatherDisplay:10.37 W/m2 CLR
01:24 40.5 °F 34.5 °F 30.25 in NNW 0.1 mph 1.1 mph 79% 0.00 in WeatherDisplay:10.37 W/m2 CLR
01:39 40.7 °F 34.0 °F 30.25 in Calm     77% 0.00 in WeatherDisplay:10.37 W/m2 CLR
01:49 40.7 °F 34.0 °F 30.25 in NNW 0.2 mph 2.3 mph 77% 0.00 in WeatherDisplay:10.37 W/m2 CLR
01:54 40.7 °F 34.4 °F 30.25 in Calm   1.1 mph 78% 0.00 in WeatherDisplay:10.37 W/m2 CLR
02:04 40.4 °F 33.8 °F 30.25 in Calm     77% 0.00 in WeatherDisplay:10.37 W/m2 CLR
02:09 40.3 °F 33.7 °F 30.25 in Calm     77% 0.00 in WeatherDisplay:10.37 W/m2 CLR
02:14 40.2 °F 33.6 °F 30.25 in Calm     77% 0.00 in WeatherDisplay:10.37 W/m2 CLR
02:19 40.1 °F 33.8 °F 30.25 in Calm     78% 0.00 in WeatherDisplay:10.37 W/m2 CLR
02:24 40.0 °F 33.7 °F 30.25 in Calm     78% 0.00 in WeatherDisplay:10.37 W/m2 CLR
02:29 39.8 °F 33.8 °F 30.25 in Calm     79% 0.00 in WeatherDisplay:10.37 W/m2 CLR
02:54 39.6 °F 33.3 °F 30.25 in Calm     78% 0.00 in WeatherDisplay:10.37 W/m2 CLR
02:59 39.5 °F 33.5 °F 30.25 in Calm     79% 0.00 in WeatherDisplay:10.37 W/m2 CLR
03:04 39.2 °F 32.9 °F 30.25 in Calm     78% 0.00 in WeatherDisplay:10.37 W/m2 CLR
03:09 38.9 °F 32.6 °F 30.25 in Calm     78% 0.00 in WeatherDisplay:10.37 W/m2 CLR
03:14 38.7 °F 32.1 °F 30.25 in Calm     77% 0.00 in WeatherDisplay:10.37 W/m2 CLR
03:24 38.2 °F 32.3 °F 30.25 in Calm     79% 0.00 in WeatherDisplay:10.37 W/m2 CLR
03:29 38.0 °F 32.4 °F 30.25 in Calm     80% 0.00 in WeatherDisplay:10.37 W/m2 CLR
03:34 37.7 °F 32.1 °F 30.24 in Calm     80% 0.00 in WeatherDisplay:10.37 W/m2 CLR
03:39 37.4 °F 31.8 °F 30.24 in Calm     80% 0.00 in WeatherDisplay:10.37 W/m2 CLR
03:44 37.1 °F 31.5 °F 30.24 in Calm     80% 0.00 in WeatherDisplay:10.37 W/m2 CLR
03:54 36.8 °F 31.8 °F 30.24 in Calm     82% 0.00 in WeatherDisplay:10.37 W/m2 CLR
03:59 36.5 °F 31.5 °F 30.24 in Calm     82% 0.00 in WeatherDisplay:10.37 W/m2 CLR
04:04 36.3 °F 31.3 °F 30.23 in Calm     82% 0.00 in WeatherDisplay:10.37 W/m2 CLR
Gayle H. Riggsbee Observatory (GHRO)
Compliments of Weather Underground - 768 kb